SJ-12

Satellite information

Favourite Embed

Satellite Type and Status

PAYLOADIN ORBIT

Key statistics

Satellite SJ-12 at a glance.

Uptime

5445

Days in orbit

Revolutions

≈ 15.1

Per day

Orbit

SSO

Sun Synchronous Orbit

Inclination

97.8

Latest

Satellite identification and parameters

Extended collection of information and parameters for SJ-12.

Object identification

Identified? True

Debris? False

Object name: SJ-12

International designator: 2010-027A

Object number (NORAD): 36596

Object ID (CCSDS): 36596

Country: PEOPLES REPUBLIC OF CHINA (PRC)

Current information (Y/N): Y

RCS size: LARGE

Orbital parameters

Period: 95.252 minutes

Inclination: 97.7709 deg

SMA: 6908.93 km

Apoapsis: 536.663 km

Periapsis: 524.927 km

RAAN: 136.3476 deg

Eccentricy: 0.0008493

Argument of periapsis: 46.3907 deg

Mean anomaly: 313.8026 deg

Mean motion: 15.11772877 rev/day

Mean motion (dot): 0.00005495 rev/day2

B* drag term: 0.00032575 1/REarth

Two-line elements (TLE)

Creation date: May 12, 2025, 2:31 a.m.

Reference frame: TEME

Reference center: EARTH

Epoch: May 11, 2025, 10:37 p.m. UTC

TLE line 0: 0 SJ-12

TLE line 1: 1 36596U 10027A 25131.94245042 .00005495 00000-0 32575-3 0 9999

TLE line 2: 2 36596 97.7709 136.3476 0008493 46.3907 313.8026 15.11772877814140

Live tracking on map

Real-time ground track for satellite SJ-12.

In-orbit conjunctions

There are no conjunctions computed for SJ-12, at the moment. Check back to stay up to date, as we update our databases every day.

Go to all conjunctions

Associated space launch

SJ-12 was lifted into orbit during the mission ‘Long March 2D | Shijian 12’, on board a Long March 2D space rocket.

The launch took place on June 15, 2010, 1:39 a.m. from Launch Area 4 (SLS-2 / 603).

For more information about the launch, click the button.

Launch to space Long March 2D | Shijian 12
Long March 2D | Shijian 12

Agency: N/A

Status: Launch Successful

Launch date: June 15, 2010, 1:39 a.m. UTC

Rocket: Long March 2D

Launch pad: Launch Area 4 (SLS-2 / 603)

Location: Jiuquan Satellite Launch Center, People's Republic of China

...

Latest news about this satellite

There are no fresh news available about this satellite. Check back as we update our databases every day.


Newsletter sign-up

Weekly statistics, charts and insights to help you stay on top of the space industry.